Simultaneous Nadir Overpasses (SNOs) Predictions

Prediction of SNOs between NOAA-19 and TERRA Satellite Orbit:

Table of predicted SNOs for the next 14.0 days since TLE Epoch: 8/3/2012
Index Date (NOAA-19) Time (NOAA-19) NOAA-19 Lat,Lon Date (TERRA) Time (TERRA) TERRA Lat,Lon Distance(km) Time Diff (sec)
1 08/04/2012 13:01:46 -69.01, 163.94 08/04/2012 13:02:00 -69.02, 163.89 1.93 14
2 08/04/2012 13:52:43 68.62, -28.29 08/04/2012 13:51:31 68.69, -28.88 25.08 72
3 08/06/2012 16:55:32 69.40, -75.01 08/06/2012 16:56:43 69.28, -74.46 25.03 71
4 08/06/2012 17:46:25 -69.02, 92.78 08/06/2012 17:46:16 -69.00, 92.81 1.88 9
5 08/08/2012 21:40:06 69.11,-145.76 08/08/2012 21:41:02 69.09,-145.78 2.14 56
6 08/08/2012 22:31:03 -68.97, 21.69 08/08/2012 22:30:32 -68.98, 21.72 2.10 31
7 08/11/2012 02:24:45 69.08, 143.12 08/11/2012 02:25:18 69.05, 143.11 3.04 33
8 08/11/2012 03:15:41 -68.91, -49.39 08/11/2012 03:14:49 -68.89, -49.46 3.47 52
9 08/13/2012 07:09:24 69.05, 72.00 08/13/2012 07:09:33 69.06, 72.05 2.46 9
10 08/13/2012 08:00:18 -68.81,-120.40 08/13/2012 07:59:05 -68.85,-120.58 8.62 73
11 08/15/2012 11:03:06 -69.55,-167.10 08/15/2012 11:04:17 -69.40,-166.21 38.55 71
12 08/15/2012 11:54:03 69.03, 0.87 08/15/2012 11:53:49 69.00, 0.92 2.98 14
13 08/15/2012 12:44:42 -68.01, 169.50 08/15/2012 12:43:34 -68.07, 167.41 87.23 68
14 08/17/2012 15:47:37 -69.12, 122.35 08/17/2012 15:48:37 -69.12, 122.35 0.94 60
15 08/17/2012 16:38:41 68.95, -70.18 08/17/2012 16:38:05 68.93, -70.23 2.64 36




NCC Satellite Simultaneous Nadir Overpasses (SNOs) Prediction Service
